When you browse on this site, cookies collect data to enhance your experience and personalize the content and advertising you see.
Visit our Privacy Policy to learn more. By continuing to use the site, you agree to this use of cookies and data.
  • In Sweden
  • List of Countries
  • For 7 days
  • Water Temperature
  • Weather Map
  • Weather Widgets
  • user-avatar
    Login

    Hourly Weather Tottori

    Today, 21 September, Saturday

    Time Temperature Precipitation Wind Pressure Humidity
    00:00 +15°C° 0.5 mm 0 mps 733 mmHg 93%
    01:00 +16°C° 0.4 mm 1 mps 732 mmHg 93%
    02:00 +16°C° 0.4 mm 1 mps 732 mmHg 94%
    03:00 +16°C° 0.4 mm 1 mps 732 mmHg 94%
    04:00 +16°C° 0.6 mm 1 mps 732 mmHg 94%
    05:00 +16°C° 0.6 mm 1 mps 732 mmHg 95%
    06:00 +16°C° 0.6 mm 1 mps 732 mmHg 96%
    07:00 +16°C° 0.7 mm 1 mps 732 mmHg 96%
    08:00 +18°C° 0.7 mm 1 mps 733 mmHg 96%
    09:00 +17°C° 0.7 mm 2 mps 733 mmHg 97%
    10:00 +17°C° 0.6 mm 2 mps 733 mmHg 97%
    11:00 +17°C° 0.6 mm 2 mps 733 mmHg 97%
    12:00 +17°C° 0.6 mm 2 mps 733 mmHg 97%
    13:00 +18°C° 0.2 mm 2 mps 732 mmHg 96%
    14:00 +19°C° 0.2 mm 1 mps 732 mmHg 95%
    15:00 +19°C° 0.2 mm 1 mps 731 mmHg 94%
    16:00 +19°C° 0.1 mm 1 mps 732 mmHg 94%
    17:00 +19°C° 0.1 mm 1 mps 732 mmHg 94%
    18:00 +19°C° 0.1 mm 1 mps 732 mmHg 95%
    19:00 +19°C° 0 mm 1 mps 732 mmHg 94%
    20:00 +19°C° 0 mm 1 mps 732 mmHg 94%
    21:00 +19°C° 0 mm 1 mps 732 mmHg 93%
    22:00 +19°C° 0.1 mm 1 mps 732 mmHg 93%
    23:00 +19°C° 0.1 mm 1 mps 731 mmHg 93%

    Tomorrow, 22 September, Sunday

    Time Temperature Precipitation Wind Pressure Humidity
    00:00 +19°C° 0.1 mm 1 mps 731 mmHg 93%
    01:00 +19°C° 0.1 mm 1 mps 731 mmHg 93%
    02:00 +19°C° 0.1 mm 1 mps 731 mmHg 93%
    03:00 +19°C° 0.1 mm 1 mps 730 mmHg 93%
    04:00 +19°C° 0.1 mm 1 mps 730 mmHg 93%
    05:00 +19°C° 0.1 mm 1 mps 730 mmHg 93%
    06:00 +19°C° 0.1 mm 1 mps 730 mmHg 94%
    07:00 +20°C° 0.9 mm 1 mps 730 mmHg 94%
    08:00 +19°C° 0.9 mm 2 mps 730 mmHg 95%
    09:00 +19°C° 0.9 mm 2 mps 730 mmHg 96%
    10:00 +19°C° 5.3 mm 2 mps 729 mmHg 97%
    11:00 +19°C° 5.3 mm 2 mps 729 mmHg 98%
    12:00 +20°C° 5.3 mm 1 mps 728 mmHg 99%
    13:00 +20°C° 4.3 mm 1 mps 728 mmHg 98%
    14:00 +20°C° 4.3 mm 1 mps 727 mmHg 98%
    15:00 +19°C° 4.3 mm 2 mps 727 mmHg 98%
    16:00 +20°C° 0.6 mm 2 mps 726 mmHg 98%
    17:00 +20°C° 0.6 mm 2 mps 726 mmHg 98%
    18:00 +21°C° 0.6 mm 3 mps 726 mmHg 98%
    19:00 +21°C° 0 mm 3 mps 725 mmHg 97%
    20:00 +21°C° 0 mm 3 mps 725 mmHg 97%
    21:00 +22°C° 0 mm 3 mps 725 mmHg 97%
    22:00 +22°C° 0.3 mm 4 mps 725 mmHg 97%
    23:00 +22°C° 0.3 mm 5 mps 724 mmHg 97%

    Day after tomorrow, 23 September, Monday

    Time Temperature Precipitation Wind Pressure Humidity
    00:00 +23°C° 0.3 mm 5 mps 723 mmHg 97%
    01:00 +23°C° 0.7 mm 6 mps 723 mmHg 96%
    02:00 +24°C° 0.7 mm 7 mps 722 mmHg 95%
    03:00 +24°C° 0.7 mm 8 mps 721 mmHg 95%
    04:00 +24°C° 0.2 mm 8 mps 720 mmHg 93%
    05:00 +24°C° 0.2 mm 9 mps 719 mmHg 92%
    06:00 +26°C° 0.2 mm 9 mps 718 mmHg 91%
    07:00 +26°C° 0.1 mm 10 mps 719 mmHg 87%
    08:00 +27°C° 0.1 mm 10 mps 719 mmHg 82%
    09:00 +28°C° 0.1 mm 11 mps 719 mmHg 78%
    10:00 +27°C° 0 mm 11 mps 720 mmHg 76%
    11:00 +26°C° 0 mm 10 mps 720 mmHg 73%
    12:00 +26°C° 0 mm 10 mps 721 mmHg 71%
    13:00 +24°C° 0 mm 9 mps 722 mmHg 70%
    14:00 +24°C° 0 mm 8 mps 723 mmHg 69%
    15:00 +24°C° 0 mm 7 mps 725 mmHg 68%
    16:00 +22°C° 0.1 mm 6 mps 725 mmHg 75%
    17:00 +20°C° 0.1 mm 4 mps 726 mmHg 81%
    18:00 +18°C° 0.1 mm 3 mps 727 mmHg 88%
    19:00 +18°C° 0.1 mm 3 mps 728 mmHg 89%
    20:00 +18°C° 0.1 mm 2 mps 729 mmHg 91%
    21:00 +18°C° 0.1 mm 2 mps 729 mmHg 92%
    22:00 +18°C° 0.1 mm 2 mps 729 mmHg 93%
    23:00 +17°C° 0.1 mm 2 mps 729 mmHg 94%

    24 September, Tuesday

    Time Temperature Precipitation Wind Pressure Humidity
    00:00 +17°C° 0.1 mm 2 mps 729 mmHg 96%
    01:00 +17°C° 0 mm 2 mps 729 mmHg 95%
    02:00 +17°C° 0 mm 2 mps 729 mmHg 94%
    03:00 +18°C° 0 mm 1 mps 730 mmHg 94%
    04:00 +18°C° 0.2 mm 1 mps 730 mmHg 94%
    05:00 +17°C° 0.2 mm 2 mps 730 mmHg 94%
    06:00 +17°C° 0.2 mm 2 mps 731 mmHg 93%
    07:00 +18°C° 0.2 mm 2 mps 731 mmHg 89%
    08:00 +19°C° 0.2 mm 2 mps 731 mmHg 85%
    09:00 +20°C° 0.2 mm 2 mps 732 mmHg 82%
    10:00 +21°C° 0.2 mm 2 mps 732 mmHg 78%
    11:00 +21°C° 0.2 mm 2 mps 732 mmHg 75%
    12:00 +22°C° 0.2 mm 3 mps 732 mmHg 72%
    13:00 +21°C° 0.2 mm 3 mps 732 mmHg 74%
    14:00 +20°C° 0.2 mm 3 mps 732 mmHg 77%
    15:00 +20°C° 0.2 mm 3 mps 732 mmHg 80%
    16:00 +19°C° 0.1 mm 2 mps 732 mmHg 83%
    17:00 +18°C° 0.1 mm 2 mps 732 mmHg 87%
    18:00 +17°C° 0.1 mm 2 mps 732 mmHg 90%
    19:00 +17°C° 0.1 mm 2 mps 733 mmHg 92%
    20:00 +17°C° 0.1 mm 2 mps 733 mmHg 93%
    21:00 +16°C° 0.1 mm 2 mps 734 mmHg 94%
    22:00 +16°C° 0 mm 2 mps 734 mmHg 95%
    23:00 +16°C° 0 mm 2 mps 734 mmHg 95%

    25 September, Wednesday

    Time Temperature Precipitation Wind Pressure Humidity
    00:00 +16°C° 0 mm 2 mps 734 mmHg 95%
    01:00 +16°C° 0 mm 2 mps 734 mmHg 95%
    02:00 +16°C° 0 mm 2 mps 734 mmHg 95%
    03:00 +15°C° 0 mm 2 mps 734 mmHg 95%
    04:00 +15°C° 0 mm 2 mps 734 mmHg 95%
    05:00 +15°C° 0 mm 2 mps 734 mmHg 95%
    06:00 +15°C° 0 mm 2 mps 734 mmHg 96%
    07:00 +17°C° 0 mm 2 mps 735 mmHg 89%
    08:00 +19°C° 0 mm 2 mps 735 mmHg 81%
    09:00 +20°C° 0 mm 2 mps 735 mmHg 74%
    10:00 +21°C° 0 mm 2 mps 735 mmHg 69%
    11:00 +22°C° 0 mm 3 mps 735 mmHg 64%
    12:00 +25°C° 0 mm 3 mps 735 mmHg 58%
    13:00 +24°C° 0 mm 3 mps 735 mmHg 60%
    14:00 +24°C° 0 mm 3 mps 735 mmHg 62%
    15:00 +24°C° 0 mm 3 mps 734 mmHg 64%
    16:00 +21°C° 0 mm 3 mps 734 mmHg 73%
    17:00 +20°C° 0 mm 2 mps 735 mmHg 83%
    18:00 +18°C° 0 mm 2 mps 735 mmHg 92%
    19:00 +17°C° 0 mm 2 mps 735 mmHg 93%
    20:00 +17°C° 0 mm 2 mps 735 mmHg 94%
    21:00 +16°C° 0 mm 2 mps 735 mmHg 95%
    22:00 +16°C° 0 mm 1 mps 735 mmHg 95%
    23:00 +16°C° 0 mm 1 mps 735 mmHg 95%

    26 September, Thursday

    Time Temperature Precipitation Wind Pressure Humidity
    00:00 +16°C° 0 mm 1 mps 735 mmHg 95%
    01:00 +16°C° 0 mm 1 mps 735 mmHg 95%
    02:00 +16°C° 0 mm 1 mps 735 mmHg 94%
    03:00 +16°C° 0 mm 1 mps 735 mmHg 94%
    04:00 +16°C° 0 mm 1 mps 735 mmHg 93%
    05:00 +16°C° 0 mm 1 mps 735 mmHg 93%
    06:00 +15°C° 0 mm 0 mps 734 mmHg 93%
    07:00 +17°C° 0 mm 0 mps 735 mmHg 85%
    08:00 +20°C° 0 mm 0 mps 735 mmHg 77%
    09:00 +23°C° 0 mm 0 mps 735 mmHg 69%
    10:00 +26°C° 0 mm 1 mps 735 mmHg 64%
    11:00 +27°C° 0 mm 1 mps 735 mmHg 59%
    12:00 +28°C° 0 mm 2 mps 735 mmHg 54%
    13:00 +28°C° 0 mm 2 mps 735 mmHg 54%
    14:00 +28°C° 0 mm 1 mps 734 mmHg 55%
    15:00 +28°C° 0 mm 1 mps 734 mmHg 55%
    16:00 +26°C° 0 mm 1 mps 734 mmHg 66%
    17:00 +24°C° 0 mm 1 mps 734 mmHg 76%
    18:00 +20°C° 0 mm 0 mps 734 mmHg 87%
    19:00 +20°C° 0 mm 0 mps 734 mmHg 86%
    20:00 +20°C° 0 mm 0 mps 734 mmHg 86%
    21:00 +20°C° 0 mm 0 mps 734 mmHg 86%
    22:00 +19°C° 0 mm 0 mps 734 mmHg 87%
    23:00 +21°C° 0 mm 1 mps 734 mmHg 89%
    Show more